Time,TemperatureF,DewpointF,PressureIn,WindDirection,WindDirectionDegrees,WindSpeedMPH,WindSpeedGustMPH,Humidity,HourlyPrecipIn,Conditions,Clouds,dailyrainin,SoftwareType,DateUTC
2013-08-13 00:02:00,82.2,75.0,30.05,East,95,5.0,-999.0,79,0.00,,,0.00,Wunderground v.1.15,2013-08-13 04:02:00,
2013-08-13 00:07:00,82.0,75.2,30.05,East,86,4.0,-999.0,80,0.00,,,0.00,Wunderground v.1.15,2013-08-13 04:07:00,
2013-08-13 00:12:00,82.0,75.2,30.05,ESE,104,4.0,-999.0,80,0.00,,,0.00,Wunderground v.1.15,2013-08-13 04:12:00,
2013-08-13 00:17:00,81.9,75.5,30.05,East,88,3.0,-999.0,81,0.00,,,0.00,Wunderground v.1.15,2013-08-13 04:17:00,
2013-08-13 00:22:00,81.8,75.4,30.05,ESE,105,3.0,-999.0,81,0.00,,,0.00,Wunderground v.1.15,2013-08-13 04:22:00,
2013-08-13 00:27:00,81.7,74.9,30.05,ESE,102,2.0,-999.0,80,0.00,,,0.00,Wunderground v.1.15,2013-08-13 04:27:00,
2013-08-13 00:32:00,81.6,75.2,30.05,East,87,2.0,-999.0,81,0.00,,,0.00,Wunderground v.1.15,2013-08-13 04:32:00,
2013-08-13 00:37:00,81.5,75.1,30.05,ESE,109,2.0,-999.0,81,0.00,,,0.00,Wunderground v.1.15,2013-08-13 04:37:00,
2013-08-13 00:42:00,81.4,75.4,30.05,East,88,3.0,-999.0,82,0.00,,,0.00,Wunderground v.1.15,2013-08-13 04:42:00,
2013-08-13 00:47:00,81.4,75.4,30.05,NE,53,4.0,-999.0,82,0.00,,,0.00,Wunderground v.1.15,2013-08-13 04:47:00,
2013-08-13 00:57:00,81.2,75.2,30.04,ESE,103,2.0,-999.0,82,0.00,,,0.00,Wunderground v.1.15,2013-08-13 04:57:00,
2013-08-13 01:07:00,81.0,75.3,30.04,East,97,2.0,-999.0,83,0.00,,,0.00,Wunderground v.1.15,2013-08-13 05:07:00,
2013-08-13 01:12:00,81.0,75.3,30.04,East,80,1.0,-999.0,83,0.00,,,0.00,Wunderground v.1.15,2013-08-13 05:12:00,
2013-08-13 01:17:00,80.9,75.2,30.04,ESE,102,1.0,-999.0,83,0.00,,,0.00,Wunderground v.1.15,2013-08-13 05:17:00,
2013-08-13 01:22:00,80.8,75.5,30.04,East,95,1.0,-999.0,84,0.00,,,0.00,Wunderground v.1.15,2013-08-13 05:22:00,
2013-08-13 01:27:00,80.7,75.4,30.04,ESE,106,2.0,-999.0,84,0.00,,,0.00,Wunderground v.1.15,2013-08-13 05:27:00,
2013-08-13 01:32:00,80.7,75.4,30.04,ESE,102,3.0,-999.0,84,0.00,,,0.00,Wunderground v.1.15,2013-08-13 05:32:00,
2013-08-13 01:37:00,80.6,75.3,30.04,East,95,5.0,-999.0,84,0.00,,,0.00,Wunderground v.1.15,2013-08-13 05:37:00,
2013-08-13 01:42:00,80.6,75.7,30.03,East,80,5.0,-999.0,85,0.00,,,0.00,Wunderground v.1.15,2013-08-13 05:42:00,
2013-08-13 01:47:00,80.6,75.7,30.03,East,101,4.0,-999.0,85,0.00,,,0.00,Wunderground v.1.15,2013-08-13 05:47:00,
2013-08-13 01:52:00,80.5,75.6,30.03,ESE,111,5.0,-999.0,85,0.00,,,0.00,Wunderground v.1.15,2013-08-13 05:52:00,
2013-08-13 01:57:00,80.4,75.5,30.03,ESE,107,5.0,-999.0,85,0.00,,,0.00,Wunderground v.1.15,2013-08-13 05:57:00,
2013-08-13 02:02:00,80.3,75.7,30.03,ESE,109,4.0,-999.0,86,0.00,,,0.00,Wunderground v.1.15,2013-08-13 06:02:00,
2013-08-13 02:12:00,80.2,75.6,30.02,ESE,107,4.0,-999.0,86,0.00,,,0.00,Wunderground v.1.15,2013-08-13 06:12:00,
2013-08-13 02:22:00,80.1,75.9,30.02,East,95,3.0,-999.0,87,0.00,,,0.00,Wunderground v.1.15,2013-08-13 06:22:00,
2013-08-13 02:27:00,80.0,75.8,30.02,East,86,3.0,-999.0,87,0.00,,,0.00,Wunderground v.1.15,2013-08-13 06:27:00,
2013-08-13 02:32:00,79.9,75.3,30.02,ESE,115,3.0,-999.0,86,0.00,,,0.00,Wunderground v.1.15,2013-08-13 06:32:00,
2013-08-13 02:37:00,79.9,75.7,30.02,ESE,108,4.0,-999.0,87,0.00,,,0.00,Wunderground v.1.15,2013-08-13 06:37:00,
2013-08-13 02:42:00,79.9,75.7,30.01,ESE,110,3.0,-999.0,87,0.00,,,0.00,Wunderground v.1.15,2013-08-13 06:42:00,
2013-08-13 02:47:00,79.9,75.7,30.01,SE,130,4.0,-999.0,87,0.00,,,0.00,Wunderground v.1.15,2013-08-13 06:47:00,
2013-08-13 02:57:00,79.8,75.2,30.01,ESE,117,4.0,-999.0,86,0.00,,,0.00,Wunderground v.1.15,2013-08-13 06:57:00,
2013-08-13 03:02:00,79.7,75.5,30.01,ESE,118,4.0,-999.0,87,0.00,,,0.00,Wunderground v.1.15,2013-08-13 07:02:00,
2013-08-13 03:07:00,79.6,75.4,30.01,East,98,3.0,-999.0,87,0.00,,,0.00,Wunderground v.1.15,2013-08-13 07:07:00,
2013-08-13 03:17:00,79.6,75.4,30.01,ESE,113,3.0,-999.0,87,0.00,,,0.00,Wunderground v.1.15,2013-08-13 07:17:00,
2013-08-13 03:27:00,79.6,75.7,30.02,ESE,111,2.0,-999.0,88,0.00,,,0.00,Wunderground v.1.15,2013-08-13 07:27:00,
2013-08-13 03:32:00,79.5,75.6,30.02,ESE,113,2.0,-999.0,88,0.00,,,0.00,Wunderground v.1.15,2013-08-13 07:32:00,
2013-08-13 03:37:00,79.5,75.6,30.02,ESE,113,2.0,-999.0,88,0.00,,,0.00,Wunderground v.1.15,2013-08-13 07:37:00,
2013-08-13 03:42:00,79.5,75.6,30.02,ESE,115,2.0,-999.0,88,0.00,,,0.00,Wunderground v.1.15,2013-08-13 07:42:00,
2013-08-13 03:47:00,79.5,75.6,30.02,East,101,2.0,-999.0,88,0.00,,,0.00,Wunderground v.1.15,2013-08-13 07:47:00,
2013-08-13 03:52:00,79.4,75.5,30.01,ESE,112,2.0,-999.0,88,0.00,,,0.00,Wunderground v.1.15,2013-08-13 07:52:00,
2013-08-13 03:57:00,79.4,75.9,30.01,ESE,107,1.0,-999.0,89,0.00,,,0.00,Wunderground v.1.15,2013-08-13 07:57:00,
2013-08-13 04:02:00,79.3,75.8,30.01,ESE,109,2.0,-999.0,89,0.00,,,0.00,Wunderground v.1.15,2013-08-13 08:02:00,
2013-08-13 04:07:00,79.3,75.8,30.01,ESE,111,2.0,-999.0,89,0.00,,,0.00,Wunderground v.1.15,2013-08-13 08:07:00,
2013-08-13 04:17:00,79.0,75.5,30.01,ESE,105,3.0,-999.0,89,0.00,,,0.00,Wunderground v.1.15,2013-08-13 08:17:00,
2013-08-13 04:22:00,78.9,75.7,30.01,ESE,110,3.0,-999.0,90,0.00,,,0.00,Wunderground v.1.15,2013-08-13 08:22:00,
2013-08-13 04:27:00,78.9,75.4,30.01,ESE,105,3.0,-999.0,89,0.00,,,0.00,Wunderground v.1.15,2013-08-13 08:27:00,
2013-08-13 04:32:00,78.9,75.7,30.01,ESE,116,2.0,-999.0,90,0.00,,,0.00,Wunderground v.1.15,2013-08-13 08:32:00,
2013-08-13 04:37:00,78.9,75.7,30.01,ESE,109,2.0,-999.0,90,0.00,,,0.00,Wunderground v.1.15,2013-08-13 08:37:00,
2013-08-13 04:47:00,78.7,75.5,30.01,ESE,111,2.0,-999.0,90,0.00,,,0.00,Wunderground v.1.15,2013-08-13 08:47:00,
2013-08-13 04:52:00,78.6,75.4,30.00,ESE,113,2.0,-999.0,90,0.00,,,0.00,Wunderground v.1.15,2013-08-13 08:52:00,
2013-08-13 04:57:00,78.5,75.3,30.00,ESE,111,3.0,-999.0,90,0.00,,,0.00,Wunderground v.1.15,2013-08-13 08:57:00,
2013-08-13 05:02:00,78.5,75.3,30.00,ESE,105,3.0,-999.0,90,0.00,,,0.00,Wunderground v.1.15,2013-08-13 09:02:00,
2013-08-13 05:07:00,78.6,75.8,30.01,ESE,105,3.0,-999.0,91,0.00,,,0.00,Wunderground v.1.15,2013-08-13 09:07:00,
2013-08-13 05:12:00,78.6,75.4,30.01,East,97,3.0,-999.0,90,0.00,,,0.00,Wunderground v.1.15,2013-08-13 09:12:00,
2013-08-13 05:17:00,78.6,75.4,30.01,ESE,113,2.0,-999.0,90,0.00,,,0.00,Wunderground v.1.15,2013-08-13 09:17:00,
2013-08-13 05:22:00,78.7,75.5,30.01,ESE,113,1.0,-999.0,90,0.00,,,0.00,Wunderground v.1.15,2013-08-13 09:22:00,
2013-08-13 05:32:00,78.7,75.5,30.01,ESE,107,0.0,-999.0,90,0.00,,,0.00,Wunderground v.1.15,2013-08-13 09:32:00,
2013-08-13 05:42:00,78.6,75.4,30.01,ESE,108,0.0,-999.0,90,0.00,,,0.00,Wunderground v.1.15,2013-08-13 09:42:00,
2013-08-13 05:47:00,78.6,75.4,30.01,ESE,108,0.0,-999.0,90,0.00,,,0.00,Wunderground v.1.15,2013-08-13 09:47:00,
2013-08-13 05:52:00,78.5,75.3,30.01,ESE,107,0.0,-999.0,90,0.00,,,0.00,Wunderground v.1.15,2013-08-13 09:52:00,
2013-08-13 05:57:00,78.4,75.6,30.02,ESE,108,1.0,-999.0,91,0.00,,,0.00,Wunderground v.1.15,2013-08-13 09:57:00,
2013-08-13 06:07:00,78.3,75.5,30.01,ESE,106,1.0,-999.0,91,0.00,,,0.00,Wunderground v.1.15,2013-08-13 10:07:00,
2013-08-13 06:12:00,78.3,75.5,30.01,ESE,106,1.0,-999.0,91,0.00,,,0.00,Wunderground v.1.15,2013-08-13 10:12:00,
2013-08-13 06:17:00,78.2,75.4,30.02,ESE,106,0.0,-999.0,91,0.00,,,0.00,Wunderground v.1.15,2013-08-13 10:17:00,
2013-08-13 06:22:00,78.1,75.3,30.02,ESE,106,0.0,-999.0,91,0.00,,,0.00,Wunderground v.1.15,2013-08-13 10:22:00,
2013-08-13 06:27:00,78.0,75.2,30.02,ESE,106,0.0,-999.0,91,0.00,,,0.00,Wunderground v.1.15,2013-08-13 10:27:00,
2013-08-13 06:32:00,77.9,74.7,30.02,NNE,30,0.0,-999.0,90,0.00,,,0.00,Wunderground v.1.15,2013-08-13 10:32:00,
2013-08-13 06:37:00,77.8,74.6,30.02,NNE,31,0.0,-999.0,90,0.00,,,0.00,Wunderground v.1.15,2013-08-13 10:37:00,
2013-08-13 06:42:00,77.8,75.0,30.02,NNE,31,0.0,-999.0,91,0.00,,,0.00,Wunderground v.1.15,2013-08-13 10:42:00,
2013-08-13 06:47:00,77.8,75.0,30.02,NNE,30,0.0,-999.0,91,0.00,,,0.00,Wunderground v.1.15,2013-08-13 10:47:00,
2013-08-13 06:52:00,77.8,75.3,30.02,NNE,31,0.0,-999.0,92,0.00,,,0.00,Wunderground v.1.15,2013-08-13 10:52:00,
2013-08-13 07:02:00,77.8,75.3,30.02,NE,49,0.0,-999.0,92,0.00,,,0.00,Wunderground v.1.15,2013-08-13 11:02:00,
2013-08-13 07:07:00,77.8,75.3,30.02,NE,49,0.0,-999.0,92,0.00,,,0.00,Wunderground v.1.15,2013-08-13 11:07:00,
2013-08-13 07:12:00,77.9,75.7,30.03,East,86,0.0,-999.0,93,0.00,,,0.00,Wunderground v.1.15,2013-08-13 11:12:00,
2013-08-13 07:17:00,78.1,75.6,30.03,ESE,102,1.0,-999.0,92,0.00,,,0.00,Wunderground v.1.15,2013-08-13 11:17:00,
2013-08-13 07:22:00,78.3,75.5,30.03,ESE,110,1.0,-999.0,91,0.00,,,0.00,Wunderground v.1.15,2013-08-13 11:22:00,
2013-08-13 07:27:00,78.4,75.6,30.03,East,98,1.0,-999.0,91,0.00,,,0.00,Wunderground v.1.15,2013-08-13 11:27:00,
2013-08-13 07:37:00,78.6,75.8,30.02,East,98,1.0,-999.0,91,0.00,,,0.00,Wunderground v.1.15,2013-08-13 11:37:00,
2013-08-13 07:42:00,78.9,75.7,30.02,East,86,2.0,-999.0,90,0.00,,,0.00,Wunderground v.1.15,2013-08-13 11:42:00,
2013-08-13 07:47:00,79.1,75.9,30.03,East,101,3.0,-999.0,90,0.00,,,0.00,Wunderground v.1.15,2013-08-13 11:47:00,
2013-08-13 07:52:00,79.3,76.1,30.03,East,94,4.0,-999.0,90,0.00,,,0.00,Wunderground v.1.15,2013-08-13 11:52:00,
2013-08-13 07:57:00,79.5,76.3,30.02,East,96,4.0,-999.0,90,0.00,,,0.00,Wunderground v.1.15,2013-08-13 11:57:00,
2013-08-13 08:07:00,80.0,76.5,30.02,ESE,111,3.0,-999.0,89,0.00,,,0.00,Wunderground v.1.15,2013-08-13 12:07:00,
2013-08-13 08:12:00,80.6,76.7,30.02,East,92,2.0,-999.0,88,0.00,,,0.00,Wunderground v.1.15,2013-08-13 12:12:00,
2013-08-13 08:17:00,81.2,77.0,30.02,East,82,2.0,-999.0,87,0.00,,,0.00,Wunderground v.1.15,2013-08-13 12:17:00,
2013-08-13 08:22:00,81.6,77.0,30.02,ESE,102,2.0,-999.0,86,0.00,,,0.00,Wunderground v.1.15,2013-08-13 12:22:00,
2013-08-13 08:27:00,81.9,77.3,30.02,East,101,3.0,-999.0,86,0.00,,,0.00,Wunderground v.1.15,2013-08-13 12:27:00,
2013-08-13 08:32:00,82.2,77.2,30.02,East,98,3.0,-999.0,85,0.00,,,0.00,Wunderground v.1.15,2013-08-13 12:32:00,
2013-08-13 08:37:00,82.2,76.9,30.02,ESE,119,4.0,-999.0,84,0.00,,,0.00,Wunderground v.1.15,2013-08-13 12:37:00,
2013-08-13 08:47:00,82.5,76.8,30.02,ESE,106,4.0,-999.0,83,0.00,,,0.00,Wunderground v.1.15,2013-08-13 12:47:00,
2013-08-13 08:52:00,82.9,77.6,30.02,East,88,4.0,-999.0,84,0.00,,,0.00,Wunderground v.1.15,2013-08-13 12:52:00,
2013-08-13 08:57:00,83.2,77.1,30.02,SE,130,4.0,-999.0,82,0.00,,,0.00,Wunderground v.1.15,2013-08-13 12:57:00,
2013-08-13 09:02:00,83.1,77.0,30.02,East,100,4.0,-999.0,82,0.00,,,0.00,Wunderground v.1.15,2013-08-13 13:02:00,
2013-08-13 09:07:00,83.0,77.3,30.02,ESE,107,4.0,-999.0,83,0.00,,,0.00,Wunderground v.1.15,2013-08-13 13:07:00,
2013-08-13 09:12:00,83.2,77.1,30.02,ENE,72,4.0,-999.0,82,0.00,,,0.00,Wunderground v.1.15,2013-08-13 13:12:00,
2013-08-13 09:22:00,83.8,77.7,30.02,East,88,3.0,-999.0,82,0.00,,,0.00,Wunderground v.1.15,2013-08-13 13:22:00,
2013-08-13 09:27:00,84.3,77.8,30.03,SE,124,2.0,-999.0,81,0.00,,,0.00,Wunderground v.1.15,2013-08-13 13:27:00,
2013-08-13 09:32:00,84.6,77.7,30.03,ESE,109,2.0,-999.0,80,0.00,,,0.00,Wunderground v.1.15,2013-08-13 13:32:00,
2013-08-13 09:37:00,84.7,77.1,30.02,ESE,107,4.0,-999.0,78,0.00,,,0.00,Wunderground v.1.15,2013-08-13 13:37:00,
2013-08-13 09:42:00,84.7,77.1,30.03,SE,133,4.0,-999.0,78,0.00,,,0.00,Wunderground v.1.15,2013-08-13 13:42:00,
2013-08-13 09:47:00,84.7,77.1,30.03,ESE,122,3.0,-999.0,78,0.00,,,0.00,Wunderground v.1.15,2013-08-13 13:47:00,
2013-08-13 09:52:00,85.0,77.4,30.03,East,91,2.0,-999.0,78,0.00,,,0.00,Wunderground v.1.15,2013-08-13 13:52:00,
2013-08-13 10:02:00,85.5,77.5,30.02,ESE,105,3.0,-999.0,77,0.00,,,0.00,Wunderground v.1.15,2013-08-13 14:02:00,
2013-08-13 10:07:00,85.5,77.1,30.02,ESE,117,4.0,-999.0,76,0.00,,,0.00,Wunderground v.1.15,2013-08-13 14:07:00,
2013-08-13 10:17:00,85.9,77.1,30.02,East,98,3.0,-999.0,75,0.00,,,0.00,Wunderground v.1.15,2013-08-13 14:17:00,
2013-08-13 10:27:00,86.1,77.2,30.02,East,84,3.0,-999.0,75,0.00,,,0.00,Wunderground v.1.15,2013-08-13 14:27:00,
2013-08-13 10:32:00,86.6,78.1,30.02,NE,42,2.0,-999.0,76,0.00,,,0.00,Wunderground v.1.15,2013-08-13 14:32:00,
2013-08-13 10:37:00,87.2,77.9,30.02,NE,51,1.0,-999.0,74,0.00,,,0.00,Wunderground v.1.15,2013-08-13 14:37:00,
2013-08-13 10:42:00,87.5,77.8,30.02,ESE,107,1.0,-999.0,73,0.00,,,0.00,Wunderground v.1.15,2013-08-13 14:42:00,
2013-08-13 10:52:00,87.6,77.5,30.02,ENE,61,2.0,-999.0,72,0.00,,,0.00,Wunderground v.1.15,2013-08-13 14:52:00,
2013-08-13 10:57:00,87.5,76.9,30.03,ESE,121,2.0,-999.0,71,0.00,,,0.00,Wunderground v.1.15,2013-08-13 14:57:00,
2013-08-13 11:02:00,87.7,78.0,30.03,East,89,2.0,-999.0,73,0.00,,,0.00,Wunderground v.1.15,2013-08-13 15:02:00,
2013-08-13 11:07:00,88.0,77.4,30.03,East,93,3.0,-999.0,71,0.00,,,0.00,Wunderground v.1.15,2013-08-13 15:07:00,
2013-08-13 11:12:00,87.8,77.2,30.03,ESE,102,4.0,-999.0,71,0.00,,,0.00,Wunderground v.1.15,2013-08-13 15:12:00,
2013-08-13 11:17:00,87.6,77.5,30.03,East,88,4.0,-999.0,72,0.00,,,0.00,Wunderground v.1.15,2013-08-13 15:17:00,
2013-08-13 11:22:00,88.0,77.4,30.02,ENE,74,3.0,-999.0,71,0.00,,,0.00,Wunderground v.1.15,2013-08-13 15:22:00,
2013-08-13 11:27:00,88.4,77.8,30.02,ESE,104,2.0,-999.0,71,0.00,,,0.00,Wunderground v.1.15,2013-08-13 15:27:00,
2013-08-13 11:37:00,88.6,77.6,30.03,ENE,65,2.0,-999.0,70,0.00,,,0.00,Wunderground v.1.15,2013-08-13 15:37:00,
2013-08-13 11:42:00,88.6,76.7,30.03,South,186,2.0,-999.0,68,0.00,,,0.00,Wunderground v.1.15,2013-08-13 15:42:00,
2013-08-13 11:47:00,88.5,77.0,30.02,NNE,20,2.0,-999.0,69,0.00,,,0.00,Wunderground v.1.15,2013-08-13 15:47:00,
2013-08-13 11:52:00,88.6,76.2,30.02,SE,139,2.0,-999.0,67,0.00,,,0.00,Wunderground v.1.15,2013-08-13 15:52:00,
2013-08-13 11:57:00,88.8,76.9,30.02,SE,136,2.0,-999.0,68,0.00,,,0.00,Wunderground v.1.15,2013-08-13 15:57:00,
2013-08-13 12:07:00,89.0,76.2,30.02,East,95,3.0,-999.0,66,0.00,,,0.00,Wunderground v.1.15,2013-08-13 16:07:00,
2013-08-13 12:12:00,89.0,76.6,30.02,East,82,2.0,-999.0,67,0.00,,,0.00,Wunderground v.1.15,2013-08-13 16:12:00,
2013-08-13 12:17:00,89.0,76.6,30.02,East,94,2.0,-999.0,67,0.00,,,0.00,Wunderground v.1.15,2013-08-13 16:17:00,
2013-08-13 12:27:00,89.3,76.4,30.01,SSE,162,3.0,-999.0,66,0.00,,,0.00,Wunderground v.1.15,2013-08-13 16:27:00,
2013-08-13 12:32:00,89.2,75.4,30.01,NW,319,2.0,-999.0,64,0.00,,,0.00,Wunderground v.1.15,2013-08-13 16:32:00,
2013-08-13 12:37:00,89.4,76.5,30.01,East,101,2.0,-999.0,66,0.00,,,0.00,Wunderground v.1.15,2013-08-13 16:37:00,
2013-08-13 12:42:00,89.7,75.4,30.01,SE,128,2.0,-999.0,63,0.00,,,0.00,Wunderground v.1.15,2013-08-13 16:42:00,
2013-08-13 12:47:00,89.6,76.3,30.01,NW,314,3.0,-999.0,65,0.00,,,0.00,Wunderground v.1.15,2013-08-13 16:47:00,
2013-08-13 12:57:00,89.8,76.0,30.01,ESE,107,2.0,-999.0,64,0.00,,,0.00,Wunderground v.1.15,2013-08-13 16:57:00,
2013-08-13 13:02:00,89.9,75.6,30.01,East,80,2.0,-999.0,63,0.00,,,0.00,Wunderground v.1.15,2013-08-13 17:02:00,
2013-08-13 13:12:00,90.4,75.6,30.00,East,94,2.0,-999.0,62,0.00,,,0.00,Wunderground v.1.15,2013-08-13 17:12:00,
2013-08-13 13:22:00,90.3,76.5,30.00,East,96,1.0,-999.0,64,0.00,,,0.00,Wunderground v.1.15,2013-08-13 17:22:00,
2013-08-13 13:27:00,90.5,75.7,30.00,East,92,2.0,-999.0,62,0.00,,,0.00,Wunderground v.1.15,2013-08-13 17:27:00,
2013-08-13 13:32:00,90.7,75.9,30.00,East,84,2.0,-999.0,62,0.00,,,0.00,Wunderground v.1.15,2013-08-13 17:32:00,
2013-08-13 13:37:00,90.7,74.9,30.00,SE,142,3.0,-999.0,60,0.00,,,0.00,Wunderground v.1.15,2013-08-13 17:37:00,
2013-08-13 13:42:00,90.7,76.8,30.00,NNE,30,3.0,-999.0,64,0.00,,,0.00,Wunderground v.1.15,2013-08-13 17:42:00,
2013-08-13 13:47:00,91.0,74.2,30.00,SSE,155,3.0,-999.0,58,0.00,,,0.00,Wunderground v.1.15,2013-08-13 17:47:00,
2013-08-13 13:52:00,90.6,75.8,30.00,ESE,103,4.0,-999.0,62,0.00,,,0.00,Wunderground v.1.15,2013-08-13 17:52:00,
2013-08-13 13:57:00,90.3,75.5,30.00,ESE,110,4.0,-999.0,62,0.00,,,0.00,Wunderground v.1.15,2013-08-13 17:57:00,
2013-08-13 14:02:00,90.3,75.0,29.99,East,94,4.0,-999.0,61,0.00,,,0.00,Wunderground v.1.15,2013-08-13 18:02:00,
2013-08-13 14:12:00,90.9,75.6,29.99,East,90,2.0,-999.0,61,0.00,,,0.00,Wunderground v.1.15,2013-08-13 18:12:00,
2013-08-13 14:22:00,91.9,76.0,29.99,ESE,113,2.0,-999.0,60,0.00,,,0.00,Wunderground v.1.15,2013-08-13 18:22:00,
2013-08-13 14:27:00,91.7,74.3,29.98,South,181,3.0,-999.0,57,0.00,,,0.00,Wunderground v.1.15,2013-08-13 18:27:00,
2013-08-13 14:32:00,91.6,75.2,29.98,ESE,110,4.0,-999.0,59,0.00,,,0.00,Wunderground v.1.15,2013-08-13 18:32:00,
2013-08-13 14:37:00,91.9,74.5,29.98,South,171,2.0,-999.0,57,0.00,,,0.00,Wunderground v.1.15,2013-08-13 18:37:00,
2013-08-13 14:42:00,91.9,76.0,29.98,East,90,2.0,-999.0,60,0.00,,,0.00,Wunderground v.1.15,2013-08-13 18:42:00,
2013-08-13 14:47:00,92.4,75.0,29.98,ESE,103,3.0,-999.0,57,0.00,,,0.00,Wunderground v.1.15,2013-08-13 18:47:00,
2013-08-13 14:52:00,92.2,75.8,29.97,East,86,3.0,-999.0,59,0.00,,,0.00,Wunderground v.1.15,2013-08-13 18:52:00,
2013-08-13 15:02:00,92.1,74.7,29.97,SE,133,3.0,-999.0,57,0.00,,,0.00,Wunderground v.1.15,2013-08-13 19:02:00,
2013-08-13 15:07:00,92.3,75.4,29.97,SSW,192,2.0,-999.0,58,0.00,,,0.00,Wunderground v.1.15,2013-08-13 19:07:00,
2013-08-13 15:12:00,92.4,75.0,29.97,ESE,114,3.0,-999.0,57,0.00,,,0.00,Wunderground v.1.15,2013-08-13 19:12:00,
2013-08-13 15:17:00,92.6,76.7,29.97,East,87,3.0,-999.0,60,0.00,,,0.00,Wunderground v.1.15,2013-08-13 19:17:00,
2013-08-13 15:22:00,93.2,75.2,29.97,NNW,338,1.0,-999.0,56,0.00,,,0.00,Wunderground v.1.15,2013-08-13 19:22:00,
2013-08-13 15:32:00,93.7,74.5,29.96,WSW,248,2.0,-999.0,54,0.00,,,0.00,Wunderground v.1.15,2013-08-13 19:32:00,
2013-08-13 15:37:00,93.5,73.8,29.97,SSW,196,2.0,-999.0,53,0.00,,,0.00,Wunderground v.1.15,2013-08-13 19:37:00,
2013-08-13 15:47:00,92.3,77.4,29.96,NW,309,2.0,-999.0,62,0.00,,,0.00,Wunderground v.1.15,2013-08-13 19:47:00,
2013-08-13 15:52:00,91.6,78.6,29.96,West,275,3.0,-999.0,66,0.00,,,0.00,Wunderground v.1.15,2013-08-13 19:52:00,
2013-08-13 15:57:00,90.6,77.7,29.97,West,271,4.0,-999.0,66,0.00,,,0.00,Wunderground v.1.15,2013-08-13 19:57:00,
2013-08-13 16:02:00,89.8,77.4,29.97,NW,315,4.0,-999.0,67,0.00,,,0.00,Wunderground v.1.15,2013-08-13 20:02:00,
2013-08-13 16:07:00,88.8,77.3,29.96,West,259,5.0,-999.0,69,0.00,,,0.00,Wunderground v.1.15,2013-08-13 20:07:00,
2013-08-13 16:12:00,88.2,77.2,29.96,WNW,302,7.0,-999.0,70,0.00,,,0.00,Wunderground v.1.15,2013-08-13 20:12:00,
2013-08-13 16:22:00,89.2,78.1,29.95,SW,229,5.0,-999.0,70,0.00,,,0.00,Wunderground v.1.15,2013-08-13 20:22:00,
2013-08-13 16:27:00,89.2,77.7,29.95,WSW,258,5.0,-999.0,69,0.00,,,0.00,Wunderground v.1.15,2013-08-13 20:27:00,
2013-08-13 16:32:00,88.9,77.0,29.95,West,271,6.0,-999.0,68,0.00,,,0.00,Wunderground v.1.15,2013-08-13 20:32:00,
2013-08-13 16:42:00,87.1,77.0,29.96,WSW,257,8.0,-999.0,72,0.00,,,0.00,Wunderground v.1.15,2013-08-13 20:42:00,
2013-08-13 16:47:00,86.8,77.1,29.95,WSW,258,7.0,-999.0,73,0.00,,,0.00,Wunderground v.1.15,2013-08-13 20:47:00,
2013-08-13 16:57:00,86.3,76.6,29.96,WSW,257,5.0,-999.0,73,0.00,,,0.00,Wunderground v.1.15,2013-08-13 20:57:00,
2013-08-13 17:02:00,86.4,76.7,29.96,West,263,4.0,-999.0,73,0.00,,,0.00,Wunderground v.1.15,2013-08-13 21:02:00,
2013-08-13 17:07:00,86.4,77.1,29.96,West,267,5.0,-999.0,74,0.00,,,0.00,Wunderground v.1.15,2013-08-13 21:07:00,
2013-08-13 17:12:00,86.2,78.1,29.96,SW,236,5.0,-999.0,77,0.00,,,0.00,Wunderground v.1.15,2013-08-13 21:12:00,
2013-08-13 17:17:00,86.2,78.1,29.95,WSW,252,4.0,-999.0,77,0.00,,,0.00,Wunderground v.1.15,2013-08-13 21:17:00,
2013-08-13 17:22:00,86.6,78.1,29.95,West,263,4.0,-999.0,76,0.00,,,0.00,Wunderground v.1.15,2013-08-13 21:22:00,
2013-08-13 17:32:00,87.0,77.7,29.95,West,263,5.0,-999.0,74,0.00,,,0.01,Wunderground v.1.15,2013-08-13 21:32:00,
2013-08-13 17:37:00,86.6,77.3,29.95,SW,234,5.0,-999.0,74,0.00,,,0.01,Wunderground v.1.15,2013-08-13 21:37:00,
2013-08-13 17:42:00,86.3,77.8,29.94,WSW,257,4.0,-999.0,76,0.00,,,0.01,Wunderground v.1.15,2013-08-13 21:42:00,
2013-08-13 17:47:00,86.1,77.2,29.94,SW,230,4.0,-999.0,75,0.00,,,0.01,Wunderground v.1.15,2013-08-13 21:47:00,
2013-08-13 17:52:00,86.2,77.3,29.95,WSW,252,4.0,-999.0,75,0.00,,,0.01,Wunderground v.1.15,2013-08-13 21:52:00,
2013-08-13 17:57:00,86.3,77.0,29.95,SW,226,4.0,-999.0,74,0.00,,,0.01,Wunderground v.1.15,2013-08-13 21:57:00,
2013-08-13 18:02:00,86.4,76.7,29.95,West,265,3.0,-999.0,73,0.00,,,0.01,Wunderground v.1.15,2013-08-13 22:02:00,
2013-08-13 18:12:00,86.6,76.9,29.95,WNW,293,5.0,-999.0,73,0.00,,,0.01,Wunderground v.1.15,2013-08-13 22:12:00,
2013-08-13 18:17:00,86.6,77.3,29.95,WSW,238,5.0,-999.0,74,0.00,,,0.01,Wunderground v.1.15,2013-08-13 22:17:00,
2013-08-13 18:22:00,86.6,76.9,29.94,WSW,246,5.0,-999.0,73,0.00,,,0.01,Wunderground v.1.15,2013-08-13 22:22:00,
2013-08-13 18:27:00,86.8,77.1,29.93,SSW,202,5.0,-999.0,73,0.00,,,0.01,Wunderground v.1.15,2013-08-13 22:27:00,
2013-08-13 18:32:00,87.0,76.9,29.93,West,259,5.0,-999.0,72,0.00,,,0.01,Wunderground v.1.15,2013-08-13 22:32:00,
2013-08-13 18:37:00,87.4,77.3,29.93,SW,234,5.0,-999.0,72,0.00,,,0.01,Wunderground v.1.15,2013-08-13 22:37:00,
2013-08-13 18:42:00,87.7,78.0,29.93,NE,41,4.0,-999.0,73,0.00,,,0.01,Wunderground v.1.15,2013-08-13 22:42:00,
2013-08-13 18:47:00,88.0,77.0,29.93,WSW,247,4.0,-999.0,70,0.00,,,0.01,Wunderground v.1.15,2013-08-13 22:47:00,
2013-08-13 18:57:00,88.1,77.5,29.95,NNW,331,4.0,-999.0,71,0.00,,,0.01,Wunderground v.1.15,2013-08-13 22:57:00,
2013-08-13 19:07:00,87.8,77.6,29.94,WNW,290,4.0,-999.0,72,0.00,,,0.01,Wunderground v.1.15,2013-08-13 23:07:00,
2013-08-13 19:12:00,87.6,77.5,29.94,West,273,4.0,-999.0,72,0.00,,,0.01,Wunderground v.1.15,2013-08-13 23:12:00,
2013-08-13 19:17:00,87.5,76.9,29.94,West,273,4.0,-999.0,71,0.00,,,0.01,Wunderground v.1.15,2013-08-13 23:17:00,
2013-08-13 19:22:00,87.5,77.4,29.95,West,277,4.0,-999.0,72,0.00,,,0.01,Wunderground v.1.15,2013-08-13 23:22:00,
2013-08-13 19:27:00,87.3,77.2,29.95,WNW,299,3.0,-999.0,72,0.00,,,0.01,Wunderground v.1.15,2013-08-13 23:27:00,
2013-08-13 19:32:00,87.2,77.1,29.96,NNW,334,3.0,-999.0,72,0.00,,,0.01,Wunderground v.1.15,2013-08-13 23:32:00,
2013-08-13 19:37:00,87.0,76.9,29.96,NW,317,4.0,-999.0,72,0.00,,,0.01,Wunderground v.1.15,2013-08-13 23:37:00,
2013-08-13 19:42:00,86.9,77.2,29.96,West,273,3.0,-999.0,73,0.00,,,0.01,Wunderground v.1.15,2013-08-13 23:42:00,
2013-08-13 19:47:00,86.7,77.4,29.95,West,267,3.0,-999.0,74,0.00,,,0.01,Wunderground v.1.15,2013-08-13 23:47:00,
2013-08-13 19:52:00,86.5,77.2,29.95,West,260,4.0,-999.0,74,0.00,,,0.01,Wunderground v.1.15,2013-08-13 23:52:00,
2013-08-13 19:57:00,86.4,77.5,29.94,WSW,239,4.0,-999.0,75,0.00,,,0.01,Wunderground v.1.15,2013-08-13 23:57:00,
2013-08-13 20:07:00,86.0,76.7,29.95,West,266,4.0,-999.0,74,0.00,,,0.01,Wunderground v.1.15,2013-08-14 00:07:00,
2013-08-13 20:12:00,85.9,76.6,29.98,NNW,338,3.0,-999.0,74,0.00,,,0.01,Wunderground v.1.15,2013-08-14 00:12:00,
2013-08-13 20:17:00,85.9,76.6,29.98,NW,309,2.0,-999.0,74,0.00,,,0.01,Wunderground v.1.15,2013-08-14 00:17:00,
2013-08-13 20:22:00,85.8,77.0,29.97,West,279,2.0,-999.0,75,0.00,,,0.01,Wunderground v.1.15,2013-08-14 00:22:00,
2013-08-13 20:32:00,85.7,76.9,29.98,WSW,257,1.0,-999.0,75,0.00,,,0.01,Wunderground v.1.15,2013-08-14 00:32:00,
2013-08-13 20:37:00,85.7,76.9,29.99,WSW,258,1.0,-999.0,75,0.00,,,0.01,Wunderground v.1.15,2013-08-14 00:37:00,
2013-08-13 20:42:00,85.7,77.3,29.99,East,87,0.0,-999.0,76,0.00,,,0.01,Wunderground v.1.15,2013-08-14 00:42:00,
2013-08-13 20:47:00,83.3,76.1,30.00,ENE,78,4.0,-999.0,79,0.00,,,0.02,Wunderground v.1.15,2013-08-14 00:47:00,
2013-08-13 20:52:00,79.4,75.5,30.00,East,95,10.0,-999.0,88,0.52,,,0.05,Wunderground v.1.15,2013-08-14 00:52:00,
2013-08-13 20:57:00,78.5,75.3,30.01,East,86,12.0,-999.0,90,2.65,,,0.14,Wunderground v.1.15,2013-08-14 00:57:00,
2013-08-13 21:02:00,77.9,73.4,30.02,SE,140,11.0,-999.0,86,6.47,,,0.56,Wunderground v.1.15,2013-08-14 01:02:00,
2013-08-13 21:07:00,77.2,74.7,30.01,SSW,195,9.0,-999.0,92,5.33,,,0.91,Wunderground v.1.15,2013-08-14 01:07:00,
2013-08-13 23:02:00,75.6,74.1,30.02,South,180,0.0,-999.0,95,0.00,,,1.32,Wunderground v.1.15,2013-08-14 03:02:00,
2013-08-13 23:07:00,75.7,74.2,30.02,South,180,0.0,-999.0,95,0.00,,,1.32,Wunderground v.1.15,2013-08-14 03:07:00,
2013-08-13 23:17:00,75.8,74.6,30.03,South,180,0.0,-999.0,96,0.00,,,1.32,Wunderground v.1.15,2013-08-14 03:17:00,
2013-08-13 23:22:00,75.9,74.7,30.02,South,180,0.0,-999.0,96,0.00,,,1.32,Wunderground v.1.15,2013-08-14 03:22:00,
2013-08-13 23:27:00,76.2,75.0,30.02,South,180,0.0,-999.0,96,0.00,,,1.32,Wunderground v.1.15,2013-08-14 03:27:00,
2013-08-13 23:32:00,76.0,74.5,30.02,South,180,0.0,-999.0,95,0.00,,,1.32,Wunderground v.1.15,2013-08-14 03:32:00,
2013-08-13 23:42:00,75.9,74.4,30.02,SSW,198,0.0,-999.0,95,0.00,,,1.32,Wunderground v.1.15,2013-08-14 03:42:00,
2013-08-13 23:47:00,75.8,74.3,30.02,SSW,198,0.0,-999.0,95,0.00,,,1.32,Wunderground v.1.15,2013-08-14 03:47:00,
2013-08-13 23:52:00,75.7,74.2,30.02,SSW,198,0.0,-999.0,95,0.00,,,1.32,Wunderground v.1.15,2013-08-14 03:52:00,
2013-08-13 23:57:00,75.7,74.2,30.02,SSW,198,0.0,-999.0,95,0.00,,,1.32,Wunderground v.1.15,2013-08-14 03:57:00,